Time,TemperatureF,DewpointF,PressureIn,WindDirection,WindDirectionDegrees,WindSpeedMPH,WindSpeedGustMPH,Humidity,HourlyPrecipIn,Conditions,Clouds,dailyrainin,SoftwareType,DateUTC
2013-05-12 00:12:00,48.0,41.0,30.01,North,0,3.0,9.0,77,0.00,,,0.31,,2013-05-12 04:12:00,
2013-05-12 00:22:00,48.0,41.0,30.01,North,0,3.0,9.0,77,0.00,,,0.31,,2013-05-12 04:22:00,
2013-05-12 00:33:00,47.0,40.0,30.02,North,0,5.0,8.0,77,0.00,,,0.31,,2013-05-12 04:33:00,
2013-05-12 00:43:00,47.0,41.0,30.02,North,0,0.0,7.0,78,0.00,,,0.31,,2013-05-12 04:43:00,
2013-05-12 00:52:00,47.0,41.0,30.02,North,0,0.0,7.0,78,0.00,,,0.31,,2013-05-12 04:52:00,
2013-05-12 01:02:00,47.0,41.0,30.03,North,0,1.0,4.0,79,0.00,,,0.21,,2013-05-12 05:02:00,
2013-05-12 01:12:00,47.0,41.0,30.03,North,0,1.0,4.0,79,0.00,,,0.21,,2013-05-12 05:12:00,
2013-05-12 01:22:00,46.0,40.0,30.03,North,0,0.0,3.0,79,0.00,,,0.21,,2013-05-12 05:22:00,
2013-05-12 01:32:00,46.0,40.0,30.03,North,0,0.0,0.0,80,0.00,,,0.21,,2013-05-12 05:32:00,
2013-05-12 01:42:00,46.0,40.0,30.03,North,0,0.0,0.0,80,0.00,,,0.21,,2013-05-12 05:42:00,
2013-05-12 01:51:00,46.0,40.0,30.03,North,0,0.0,0.0,80,0.00,,,0.21,,2013-05-12 05:51:00,
2013-05-12 02:02:00,44.0,39.0,30.03,North,0,0.0,0.0,82,0.00,,,0.00,,2013-05-12 06:02:00,
2013-05-12 02:11:00,44.0,39.0,30.03,North,0,0.0,0.0,83,0.00,,,0.00,,2013-05-12 06:11:00,
2013-05-12 02:21:00,44.0,39.0,30.03,North,0,0.0,0.0,83,0.00,,,0.00,,2013-05-12 06:21:00,
2013-05-12 02:32:00,43.0,39.0,30.03,North,0,0.0,0.0,85,0.00,,,0.00,,2013-05-12 06:32:00,
2013-05-12 02:42:00,43.0,39.0,30.03,North,0,0.0,0.0,85,0.00,,,0.00,,2013-05-12 06:42:00,
2013-05-12 02:52:00,43.0,39.0,30.03,North,0,0.0,0.0,85,0.00,,,0.00,,2013-05-12 06:52:00,
2013-05-12 03:01:00,43.0,39.0,30.03,North,0,0.0,0.0,86,0.00,,,0.00,,2013-05-12 07:01:00,
2013-05-12 03:11:00,43.0,39.0,30.03,North,0,0.0,0.0,86,0.00,,,0.00,,2013-05-12 07:11:00,
2013-05-12 03:21:00,43.0,39.0,30.03,North,0,0.0,0.0,86,0.00,,,0.00,,2013-05-12 07:21:00,
2013-05-12 03:32:00,43.0,39.0,30.03,North,0,0.0,0.0,87,0.00,,,0.00,,2013-05-12 07:32:00,
2013-05-12 03:42:00,43.0,39.0,30.03,North,0,0.0,0.0,87,0.00,,,0.00,,2013-05-12 07:42:00,
2013-05-12 03:52:00,43.0,39.0,30.03,North,0,0.0,0.0,87,0.00,,,0.00,,2013-05-12 07:52:00,
2013-05-12 04:02:00,42.0,39.0,30.03,North,0,0.0,0.0,88,0.00,,,0.00,,2013-05-12 08:02:00,
2013-05-12 04:11:00,42.0,38.0,30.03,North,0,0.0,0.0,87,0.00,,,0.00,,2013-05-12 08:11:00,
2013-05-12 04:21:00,42.0,38.0,30.03,North,0,0.0,0.0,87,0.00,,,0.00,,2013-05-12 08:21:00,
2013-05-12 04:32:00,42.0,39.0,30.03,North,0,0.0,0.0,88,0.00,,,0.00,,2013-05-12 08:32:00,
2013-05-12 04:42:00,42.0,39.0,30.03,North,0,0.0,0.0,88,0.00,,,0.00,,2013-05-12 08:42:00,
2013-05-12 04:52:00,42.0,39.0,30.03,North,0,0.0,0.0,88,0.00,,,0.00,,2013-05-12 08:52:00,
2013-05-12 05:01:00,42.0,39.0,30.04,North,0,0.0,0.0,88,0.00,,,0.00,,2013-05-12 09:01:00,
2013-05-12 05:11:00,41.0,38.0,30.03,North,0,0.0,0.0,88,0.00,,,0.00,,2013-05-12 09:11:00,
2013-05-12 05:21:00,41.0,38.0,30.03,North,0,0.0,0.0,88,0.00,,,0.00,,2013-05-12 09:21:00,
2013-05-12 05:33:00,41.0,38.0,30.03,North,0,0.0,0.0,88,0.00,,,0.00,,2013-05-12 09:33:00,
2013-05-12 05:42:00,41.0,38.0,30.03,North,0,0.0,0.0,88,0.00,,,0.00,,2013-05-12 09:42:00,
2013-05-12 05:52:00,41.0,38.0,30.03,North,0,0.0,0.0,88,0.00,,,0.00,,2013-05-12 09:52:00,
2013-05-12 06:03:00,41.0,38.0,30.05,North,0,0.0,0.0,89,0.00,,,0.00,,2013-05-12 10:03:00,
2013-05-12 06:12:00,41.0,38.0,30.04,North,0,0.0,0.0,89,0.00,,,0.00,,2013-05-12 10:12:00,
2013-05-12 06:22:00,41.0,38.0,30.04,North,0,0.0,0.0,89,0.00,,,0.00,,2013-05-12 10:22:00,
2013-05-12 06:33:00,40.0,37.0,30.04,North,0,0.0,0.0,89,0.00,,,0.00,,2013-05-12 10:33:00,
2013-05-12 06:42:00,40.0,37.0,30.04,North,0,0.0,0.0,89,0.00,,,0.00,,2013-05-12 10:42:00,
2013-05-12 06:52:00,40.0,37.0,30.05,North,0,0.0,0.0,89,0.00,,,0.00,,2013-05-12 10:52:00,
2013-05-12 07:02:00,40.0,37.0,30.05,North,0,0.0,0.0,89,0.00,,,0.00,,2013-05-12 11:02:00,
2013-05-12 07:12:00,40.0,37.0,30.05,North,0,0.0,0.0,89,0.00,,,0.00,,2013-05-12 11:12:00,
2013-05-12 07:22:00,40.0,37.0,30.05,North,0,0.0,0.0,89,0.00,,,0.00,,2013-05-12 11:22:00,
2013-05-12 07:32:00,41.0,38.0,30.07,North,0,0.0,0.0,89,0.00,,,0.00,,2013-05-12 11:32:00,
2013-05-12 07:42:00,41.0,38.0,30.06,North,0,0.0,0.0,90,0.00,,,0.00,,2013-05-12 11:42:00,
2013-05-12 07:52:00,41.0,38.0,30.06,North,0,0.0,0.0,90,0.00,,,0.00,,2013-05-12 11:52:00,
2013-05-12 08:02:00,42.0,39.0,30.06,North,0,0.0,3.0,90,0.00,,,0.00,,2013-05-12 12:02:00,
2013-05-12 08:11:00,42.0,39.0,30.06,North,0,0.0,4.0,90,0.00,,,0.00,,2013-05-12 12:11:00,
2013-05-12 08:21:00,42.0,39.0,30.06,North,0,0.0,4.0,90,0.00,,,0.00,,2013-05-12 12:21:00,
2013-05-12 08:32:00,43.0,40.0,30.07,WNW,290,2.0,8.0,88,0.00,,,0.00,,2013-05-12 12:32:00,
2013-05-12 08:41:00,43.0,40.0,30.07,WNW,290,2.0,8.0,88,0.00,,,0.00,,2013-05-12 12:41:00,
2013-05-12 08:51:00,44.0,40.0,30.07,West,274,2.0,8.0,85,0.00,,,0.00,,2013-05-12 12:51:00,
2013-05-12 09:02:00,45.0,40.0,30.07,West,278,2.0,5.0,82,0.00,,,0.00,,2013-05-12 13:02:00,
2013-05-12 09:11:00,45.0,40.0,30.07,West,278,2.0,5.0,82,0.00,,,0.00,,2013-05-12 13:11:00,
2013-05-12 09:21:00,45.0,39.0,30.08,West,265,4.0,8.0,80,0.00,,,0.00,,2013-05-12 13:21:00,
2013-05-12 09:32:00,46.0,39.0,30.08,West,265,2.0,6.0,77,0.00,,,0.00,,2013-05-12 13:32:00,
2013-05-12 09:42:00,46.0,39.0,30.08,West,265,2.0,6.0,77,0.00,,,0.00,,2013-05-12 13:42:00,
2013-05-12 09:52:00,46.0,39.0,30.08,West,265,2.0,6.0,76,0.00,,,0.00,,2013-05-12 13:52:00,
2013-05-12 10:01:00,47.0,39.0,30.08,West,270,2.0,7.0,74,0.00,,,0.00,,2013-05-12 14:01:00,
2013-05-12 10:11:00,47.0,39.0,30.08,West,270,2.0,7.0,74,0.00,,,0.00,,2013-05-12 14:11:00,
2013-05-12 10:21:00,48.0,39.0,30.08,West,270,1.0,5.0,72,0.00,,,0.00,,2013-05-12 14:21:00,
2013-05-12 10:32:00,49.0,39.0,30.08,WNW,287,2.0,7.0,69,0.00,,,0.00,,2013-05-12 14:32:00,
2013-05-12 10:42:00,49.0,39.0,30.08,West,281,3.0,7.0,67,0.00,,,0.00,,2013-05-12 14:42:00,
2013-05-12 10:52:00,49.0,39.0,30.08,West,281,3.0,7.0,67,0.00,,,0.00,,2013-05-12 14:52:00,
2013-05-12 11:01:00,50.0,38.0,30.08,NW,309,4.0,8.0,62,0.00,,,0.00,,2013-05-12 15:01:00,
2013-05-12 11:11:00,50.0,38.0,30.09,West,261,4.0,13.0,62,0.00,,,0.00,,2013-05-12 15:11:00,
2013-05-12 11:21:00,50.0,38.0,30.09,West,261,4.0,13.0,62,0.00,,,0.00,,2013-05-12 15:21:00,
2013-05-12 11:34:00,51.0,37.0,30.08,West,266,2.0,12.0,59,0.00,,,0.00,,2013-05-12 15:34:00,
2013-05-12 11:42:00,51.0,37.0,30.08,West,266,2.0,12.0,59,0.00,,,0.00,,2013-05-12 15:42:00,
2013-05-12 11:52:00,51.0,36.0,30.09,West,260,6.0,10.0,57,0.00,,,0.00,,2013-05-12 15:52:00,
2013-05-12 12:02:00,52.0,37.0,30.09,NW,309,4.0,11.0,57,0.00,,,0.00,,2013-05-12 16:02:00,
2013-05-12 12:12:00,52.0,36.0,30.09,WSW,258,6.0,12.0,55,0.00,,,0.00,,2013-05-12 16:12:00,
2013-05-12 12:23:00,52.0,36.0,30.09,WSW,258,6.0,12.0,55,0.00,,,0.00,,2013-05-12 16:23:00,
2013-05-12 12:33:00,52.0,37.0,30.09,West,268,4.0,11.0,56,0.00,,,0.00,,2013-05-12 16:33:00,
2013-05-12 12:42:00,52.0,37.0,30.09,West,268,4.0,11.0,56,0.00,,,0.00,,2013-05-12 16:42:00,
2013-05-12 12:52:00,52.0,37.0,30.10,West,261,5.0,12.0,56,0.00,,,0.00,,2013-05-12 16:52:00,
2013-05-12 13:02:00,52.0,36.0,30.10,West,270,5.0,12.0,54,0.00,,,0.00,,2013-05-12 17:02:00,
2013-05-12 13:12:00,52.0,35.0,30.10,WNW,294,6.0,12.0,52,0.00,,,0.00,,2013-05-12 17:12:00,
2013-05-12 13:22:00,52.0,35.0,30.10,WNW,294,6.0,12.0,52,0.00,,,0.00,,2013-05-12 17:22:00,
2013-05-12 13:32:00,53.0,37.0,30.10,West,262,4.0,14.0,54,0.00,,,0.00,,2013-05-12 17:32:00,
2013-05-12 13:42:00,53.0,37.0,30.10,WSW,255,4.0,13.0,54,0.00,,,0.00,,2013-05-12 17:42:00,
2013-05-12 13:52:00,53.0,37.0,30.10,WSW,255,4.0,13.0,54,0.00,,,0.00,,2013-05-12 17:52:00,
2013-05-12 14:01:00,54.0,38.0,30.11,West,279,2.0,9.0,55,0.00,,,0.00,,2013-05-12 18:01:00,
2013-05-12 14:12:00,54.0,38.0,30.11,West,279,2.0,9.0,55,0.00,,,0.00,,2013-05-12 18:12:00,
2013-05-12 14:22:00,54.0,38.0,30.11,WNW,290,4.0,11.0,54,0.00,,,0.00,,2013-05-12 18:22:00,
2013-05-12 14:32:00,54.0,36.0,30.11,West,261,5.0,11.0,51,0.00,,,0.00,,2013-05-12 18:32:00,
2013-05-12 14:42:00,54.0,36.0,30.11,West,261,5.0,11.0,51,0.00,,,0.00,,2013-05-12 18:42:00,
2013-05-12 14:51:00,53.0,36.0,30.11,NW,305,4.0,13.0,53,0.00,,,0.00,,2013-05-12 18:51:00,
2013-05-12 15:01:00,54.0,36.0,30.11,WSW,249,6.0,11.0,51,0.00,,,0.00,,2013-05-12 19:01:00,
2013-05-12 15:11:00,54.0,36.0,30.11,West,279,4.0,12.0,50,0.00,,,0.00,,2013-05-12 19:11:00,
2013-05-12 15:22:00,54.0,36.0,30.11,West,279,4.0,12.0,50,0.00,,,0.00,,2013-05-12 19:22:00,
2013-05-12 15:32:00,55.0,36.0,30.10,WNW,284,4.0,15.0,49,0.00,,,0.00,,2013-05-12 19:32:00,
2013-05-12 15:42:00,56.0,38.0,30.10,WNW,295,3.0,13.0,51,0.00,,,0.00,,2013-05-12 19:42:00,
2013-05-12 15:52:00,56.0,38.0,30.10,WNW,295,3.0,13.0,51,0.00,,,0.00,,2013-05-12 19:52:00,
2013-05-12 16:02:00,55.0,37.0,30.10,West,275,4.0,12.0,50,0.00,,,0.00,,2013-05-12 20:02:00,
2013-05-12 16:11:00,55.0,37.0,30.10,NW,325,3.0,11.0,51,0.00,,,0.00,,2013-05-12 20:11:00,
2013-05-12 16:21:00,55.0,37.0,30.10,NW,325,3.0,11.0,51,0.00,,,0.00,,2013-05-12 20:21:00,
2013-05-12 16:32:00,56.0,38.0,30.10,WNW,297,3.0,10.0,51,0.00,,,0.00,,2013-05-12 20:32:00,
2013-05-12 16:42:00,56.0,36.0,30.10,NW,316,4.0,11.0,47,0.00,,,0.00,,2013-05-12 20:42:00,
2013-05-12 16:51:00,56.0,36.0,30.10,NW,316,4.0,11.0,47,0.00,,,0.00,,2013-05-12 20:51:00,
2013-05-12 17:01:00,57.0,38.0,30.10,WNW,298,5.0,14.0,48,0.00,,,0.00,,2013-05-12 21:01:00,
2013-05-12 17:11:00,57.0,36.0,30.10,WNW,288,5.0,15.0,46,0.00,,,0.00,,2013-05-12 21:11:00,
2013-05-12 17:21:00,57.0,36.0,30.10,WNW,288,5.0,15.0,46,0.00,,,0.00,,2013-05-12 21:21:00,
2013-05-12 17:33:00,56.0,37.0,30.09,West,269,3.0,12.0,48,0.00,,,0.00,,2013-05-12 21:33:00,
2013-05-12 17:42:00,56.0,37.0,30.09,West,269,3.0,12.0,48,0.00,,,0.00,,2013-05-12 21:42:00,
2013-05-12 17:53:00,57.0,38.0,30.10,WNW,298,5.0,11.0,48,0.00,,,0.00,,2013-05-12 21:53:00,
2013-05-12 18:02:00,56.0,36.0,30.10,West,267,6.0,11.0,47,0.00,,,0.00,,2013-05-12 22:02:00,
2013-05-12 18:12:00,56.0,37.0,30.09,West,263,5.0,9.0,48,0.00,,,0.00,,2013-05-12 22:12:00,
2013-05-12 18:23:00,56.0,37.0,30.09,West,263,5.0,9.0,48,0.00,,,0.00,,2013-05-12 22:23:00,
2013-05-12 18:33:00,56.0,37.0,30.08,WSW,257,6.0,14.0,48,0.00,,,0.00,,2013-05-12 22:33:00,
2013-05-12 18:42:00,56.0,37.0,30.08,WSW,257,6.0,14.0,48,0.00,,,0.00,,2013-05-12 22:42:00,
2013-05-12 18:52:00,55.0,36.0,30.09,WSW,249,3.0,11.0,48,0.00,,,0.00,,2013-05-12 22:52:00,
2013-05-12 19:02:00,55.0,35.0,30.08,West,262,5.0,10.0,46,0.00,,,0.00,,2013-05-12 23:02:00,
2013-05-12 19:12:00,55.0,35.0,30.08,NW,311,4.0,11.0,47,0.00,,,0.00,,2013-05-12 23:12:00,
2013-05-12 19:22:00,55.0,35.0,30.08,NW,311,4.0,11.0,47,0.00,,,0.00,,2013-05-12 23:22:00,
2013-05-12 19:32:00,54.0,34.0,30.08,NNW,340,3.0,11.0,47,0.00,,,0.00,,2013-05-12 23:32:00,
2013-05-12 19:42:00,54.0,34.0,30.08,NNW,340,3.0,11.0,47,0.00,,,0.00,,2013-05-12 23:42:00,
2013-05-12 19:52:00,54.0,35.0,30.08,North,359,5.0,10.0,48,0.00,,,0.00,,2013-05-12 23:52:00,
2013-05-12 20:01:00,54.0,35.0,30.08,NW,306,1.0,8.0,49,0.00,,,0.00,,2013-05-13 00:01:00,
2013-05-12 20:11:00,54.0,35.0,30.08,NW,306,1.0,8.0,49,0.00,,,0.00,,2013-05-13 00:11:00,
2013-05-12 20:21:00,53.0,35.0,30.08,NW,305,2.0,4.0,50,0.00,,,0.00,,2013-05-13 00:21:00,
2013-05-12 20:32:00,52.0,35.0,30.09,WNW,302,0.0,4.0,53,0.00,,,0.00,,2013-05-13 00:32:00,
2013-05-12 20:42:00,52.0,35.0,30.09,WNW,302,1.0,3.0,53,0.00,,,0.00,,2013-05-13 00:42:00,
2013-05-12 20:51:00,52.0,35.0,30.09,WNW,302,1.0,3.0,53,0.00,,,0.00,,2013-05-13 00:51:00,
2013-05-12 21:01:00,51.0,36.0,30.10,WNW,302,0.0,0.0,57,0.00,,,0.00,,2013-05-13 01:01:00,
2013-05-12 21:11:00,50.0,36.0,30.10,WNW,302,0.0,0.0,59,0.00,,,0.00,,2013-05-13 01:11:00,
2013-05-12 21:22:00,50.0,36.0,30.10,WNW,302,0.0,0.0,59,0.00,,,0.00,,2013-05-13 01:22:00,
2013-05-12 21:32:00,49.0,36.0,30.10,WNW,302,0.0,2.0,60,0.00,,,0.00,,2013-05-13 01:32:00,
2013-05-12 21:42:00,49.0,36.0,30.10,WNW,302,0.0,2.0,60,0.00,,,0.00,,2013-05-13 01:42:00,
2013-05-12 21:52:00,49.0,37.0,30.10,WNW,302,0.0,1.0,63,0.00,,,0.00,,2013-05-13 01:52:00,
2013-05-12 22:02:00,49.0,37.0,30.11,WNW,302,0.0,0.0,63,0.00,,,0.00,,2013-05-13 02:02:00,
2013-05-12 22:11:00,49.0,37.0,30.11,WNW,302,0.0,0.0,63,0.00,,,0.00,,2013-05-13 02:11:00,
2013-05-12 22:21:00,48.0,37.0,30.11,WNW,302,0.0,0.0,66,0.00,,,0.00,,2013-05-13 02:21:00,
2013-05-12 22:32:00,47.0,37.0,30.12,WNW,302,0.0,0.0,67,0.00,,,0.00,,2013-05-13 02:32:00,
2013-05-12 22:42:00,47.0,37.0,30.12,WNW,302,0.0,0.0,67,0.00,,,0.00,,2013-05-13 02:42:00,
2013-05-12 22:52:00,47.0,37.0,30.13,WNW,302,0.0,0.0,68,0.00,,,0.00,,2013-05-13 02:52:00,
2013-05-12 23:02:00,46.0,36.0,30.13,WNW,302,0.0,0.0,69,0.00,,,0.00,,2013-05-13 03:02:00,
2013-05-12 23:11:00,46.0,37.0,30.13,WNW,302,0.0,0.0,70,0.00,,,0.00,,2013-05-13 03:11:00,
2013-05-12 23:21:00,46.0,37.0,30.13,WNW,302,0.0,0.0,70,0.00,,,0.00,,2013-05-13 03:21:00,
2013-05-12 23:33:00,46.0,37.0,30.12,WNW,302,0.0,0.0,72,0.00,,,0.00,,2013-05-13 03:33:00,
2013-05-12 23:42:00,46.0,37.0,30.12,WNW,302,0.0,0.0,72,0.00,,,0.00,,2013-05-13 03:42:00,
2013-05-12 23:52:00,46.0,37.0,30.12,WNW,302,0.0,0.0,71,0.00,,,0.00,,2013-05-13 03:52:00,